TITAN 3C TRANSTAGE DEB, 26524

Orbit data source: Space-Track

TITAN 3C TRANSTAGE DEB, 26524 is space debris in HEO originally from a launch on Tue, 21 Dec 1965 UTC launched from the Air Force Eastern Test Range (AFETR). Debris objects in space refer to the collection of defunct objects orbiting the Earth. Examples of debris include non-operational satellites, rocket bodies, and fragments generated from explosions, collisions, or faulty payload assembly.

Loading next visibility...
Identifier
26524, 1965-108AK
Orbit
HEO
Country
Flag of USUS
Related business
Manufacturer
Unknown
Mission
Spacecraft
Bus & Motor
Unknown
Mass
Unknown
Launch date (UTC)
1965-12-21 (60 years ago)
Launch vehicle
Unknown
Launch site
Air Force Eastern Test Range (AFETR)
Object type
Payload
Rocket body
Debris
Shape & HBR
Unknown shape, 0.1 m
Radar Cross Section
Medium (>0.1 m² and <1 m²)

Expand to show TLE details & history
Last TLE update: 2 days ago

TLE from 2 days ago
0 TITAN 3C TRANSTAGE DEB
1 26524U 65108AK  25346.82650949  .00001543  00000-0  14485-1 0  9998
2 26524  26.4734 172.9600 6707738  54.4855 356.7677  2.81770466 38600
Epoch: 2025-12-12T19:50Z
TLE epoch observation values (Epoch: 2025-12-12T19:50:10.419Z)
Latitude
13.82866°
Longitude
-176.91059°
Altitude
798.936 km
Speed
9.605 km/s
True Right ascension
13h 29m 34s
True Declination
13° 44' 58"
Sunlit
Object was in daylight at epoch
Visualization orbit readout
Latitude
Unknown
Longitude
Unknown
Altitude
Unknown
Speed
Unknown
Apparent Right ascension
Unknown
Apparent Declination
Unknown
Sunlit
N/A
Visualization observer readout
Local Sidereal Time
12:15:30
Azimuth
Unknown
Elevation
Unknown
Doppler factor
Unknown
Orbital elements
Apogee altitude
29,004.988 km
Perigee altitude
594.113 km
Semi-major axis
21,177.687 km
Eccentricity
0.67077
Inclination
26.4734°
RAAN
172.96°
Arg. of periapsis
54.4855°
True anomaly
338.30694°
Mean anomaly
356.7677°
Eccentric anomaly
350.27707°
Mean motion
0.70425 °/min
Orbital period
511.18 mins
BSTAR
0.014485
Loading maneuver chart data...
Computing Atmospheric mass density...

Documentation

Showing up to 5 results
|